EXPRESS-AM7 (40505 NORAD) Tracking and Keplerian Element Data

This shows tracking and keplerian element data for the satellite.

Feedback or suggestion? Click here.




ElementValue
Catalog40505
NameEXPRESS-AM7
Epoch Orbit3486
Epoch Day286.85604837
Epoch Year2024
RAAN159.3236
Inclination0.0169
Eccentricity0.0002727
Argument of Perigee55.6927
Mean Anonmoly155.0926
Mean Motion1.0027285
Decay Rate1.5E-06
L11 40505U 15012A 24286.85604837 .00000150 00000+0 00000+0 0 9990
L22 40505 0.0169 159.3236 0002727 55.6927 155.0926 1.00272850 34867



Live tracking and technical data element details for EXPRESS-AM7 (NORAD 40505). EXPRESS-AM7 can be tracked NOW for your location showing map with azimuth and elevation plus other details from your city location.







IsCatalogInMostPopularTable: catalog: 40505, numindb: 707
Update: records affected: 1



GetName: 40505 EXPRESS-AM7

Hit Count: updated at: Wed, 04 Dec 2024 11:36:58 GMT